Location: Boissi�res
(45.2500°N, 2.3667°E)
Time: 00:49:35
(UTC+00:00)

Meteor 1-13 Rocket - Pass Details

Date: 03 March 2021
Orbit: 830 x 913 km, 81.3° (Epoch: 18 April)

Event Time Altitude Azimuth Distance (km) Brightness Sun altitude
Rises 19:35:54 0° 349° (N) 3,557 7.8 -21.0°
Reaches altitude 10° 19:38:24 10° 350° (N) 2,608 7.0 -21.4°
Maximum altitude 19:44:23 87° 79° (ENE) 911 4.2 -22.4°
Enters shadow 19:48:33 20° 169° (S) 1,930 5.8 -23.1°
